Location: Unspecified
(58.9933°N, 5.6375°E)
Time: 04:26:07
(UTC+02:00)

Okean 3 - Visible Passes

Search period start: 24 September 2014 00:00
Search period end: 04 October 2014 00:00
Orbit: 584 x 609 km, 82.5° (Epoch: 21 September)

Date Brightness Start Highest point End Pass type
(mag) Time Alt. Az. Time Alt. Az. Time Alt. Az.
24 Sep 5.7 01:32:22 20° NE 01:32:22 20° NE 01:34:08 10° NNE visible
24 Sep 4.8 03:09:04 35° NNW 03:09:04 35° NNW 03:11:54 10° N visible
24 Sep 5.8 04:45:45 12° NW 04:46:11 12° NW 04:47:54 10° NNW visible
25 Sep 5.6 01:42:42 23° NE 01:42:42 23° NE 01:44:37 10° NNE visible
25 Sep 5.0 03:19:24 30° NNW 03:19:24 30° NNW 03:22:06 10° N visible
26 Sep 5.5 01:53:01 26° NNE 01:53:01 26° NNE 01:55:02 10° NNE visible
26 Sep 5.3 03:29:43 24° NNW 03:29:43 24° NNW 03:32:16 10° N visible
27 Sep 5.5 02:03:20 27° NNE 02:03:20 27° NNE 02:05:23 10° NNE visible
27 Sep 5.5 03:40:01 20° NW 03:40:01 20° NW 03:42:22 10° N visible
28 Sep 6.3 00:36:57 12° NE 00:36:57 12° NE 00:37:25 10° NE visible
28 Sep 5.5 02:13:38 27° N 02:13:38 27° N 02:15:41 10° NNE visible
28 Sep 5.7 03:50:20 16° NW 03:50:20 16° NW 03:52:23 10° NNW visible
29 Sep 6.2 00:47:15 14° NE 00:47:15 14° NE 00:48:04 10° NNE visible
29 Sep 5.5 02:23:56 26° N 02:23:56 26° N 02:25:56 10° N visible
29 Sep 5.9 04:00:37 13° NW 04:00:37 13° NW 04:02:14 10° NNW visible
30 Sep 6.1 00:57:33 16° NE 00:57:33 16° NE 00:58:34 10° NNE visible
30 Sep 5.6 02:34:14 24° N 02:34:14 24° N 02:36:10 10° N visible
30 Sep 6.1 04:10:55 11° NW 04:10:55 11° NW 04:11:36 10° NNW visible
01 Oct 6.0 01:07:50 18° NNE 01:07:50 18° NNE 01:08:59 10° NNE visible
01 Oct 5.7 02:44:31 21° NNW 02:44:31 21° NNW 02:46:20 10° N visible
02 Oct 6.0 01:18:06 19° NNE 01:18:06 19° NNE 01:19:21 10° NNE visible
02 Oct 5.9 02:54:47 18° NNW 02:54:47 18° NNW 02:56:27 10° N visible
03 Oct 6.0 01:28:22 19° NNE 01:28:22 19° NNE 01:29:40 10° NNE visible
03 Oct 6.0 03:05:03 16° NNW 03:05:03 16° NNW 03:06:30 10° N visible
